Location: Koussan�
(15.2012°N, 12.5548°W)
Time: 18:02:59
(UTC+00:00)

Aureole 3 - Pass Details

Date: 20 October 2020
Orbit: 382 x 1231 km, 82.5° (Epoch: 29 November)

Event Time Altitude Azimuth Distance (km) Brightness Sun altitude
Rises 19:20:32 0° 181° (S) 3,303 7.4 -13.7°
Reaches altitude 10° 19:23:11 10° 180° (S) 2,228 6.5 -14.3°
Maximum altitude 19:28:03 77° 95° (E) 627 3.4 -15.5°
Drops below altitude 10° 19:31:53 10° 9° (N) 1,757 5.7 -16.4°
Sets 19:33:46 0° 7° (N) 2,548 6.6 -16.8°
